Weather reports worldwide

Advertisment
Pontevedra, Spain (8044): temperature & dewpoint: 18.03.2019 17:00:00 - 24.03.2019 17:00:00 (CET)Pontevedra, Spain (8044): wind speed: 18.03.2019 17:00:00 - 24.03.2019 17:00:00 (CET)Pontevedra, Spain (8044): wind direction: 18.03.2019 17:00:00 - 24.03.2019 17:00:00 (CET)Pontevedra, Spain (8044): reduced air pressure: 18.03.2019 17:00:00 - 24.03.2019 17:00:00 (CET)Pontevedra, Spain (8044): visibility: 18.03.2019 17:00:00 - 24.03.2019 17:00:00 (CET)Pontevedra, Spain (8044): precipitation: 18.03.2019 17:00:00 - 24.03.2019 17:00:00 (CET)
Date & Time tt [°C] td [°C] ff [km/h] ff [kn] dd ppp [hPa] vv [km] rr [mm]
24.03.2019 17:00:00 24,2 6,0 15 8 NNW 1019,3 20 0,0
24.03.2019 16:00:00 24,6 4,3 21 11 NW 1019,7 10 -
24.03.2019 15:00:00 25,2 7,8 16 9 WNW 1020,3 20 0,0
24.03.2019 14:00:00 24,3 8,7 11 6 WNW 1021,1 20 0,0
24.03.2019 13:00:00 23,5 8,4 8 4 WNW 1021,9 15 -
24.03.2019 12:00:00 21,1 8,0 4 2 SW 1022,4 20 0,0
24.03.2019 11:00:00 17,2 7,0 2 1 NW 1023,1 20 0,0
24.03.2019 10:00:00 14,0 5,9 2 1 W 1023,1 20 -
24.03.2019 09:00:00 11,8 5,0 2 1 SE 1022,9 20 0,0
24.03.2019 08:00:00 10,3 2,9 2 1 ESE 1022,7 20 0,0
24.03.2019 07:00:00 10,3 2,9 2 1 SSE 1022,4 20 -
24.03.2019 06:00:00 10,1 3,1 4 2 ESE 1022,5 20 0,0
24.03.2019 05:00:00 10,6 3,1 2 1 S 1022,1 20 0,0
24.03.2019 04:00:00 12,5 2,3 8 4 ENE 1022,0 20 -
24.03.2019 03:00:00 13,0 2,8 5 3 NE 1022,0 20 0,0
24.03.2019 02:00:00 13,3 3,4 5 3 ENE 1022,2 20 0,0
24.03.2019 01:00:00 13,7 3,5 5 3 NE 1022,6 20 -
24.03.2019 00:00:00 13,9 3,9 5 3 ENE 1022,9 20 0,0
23.03.2019 23:00:00 14,9 4,3 4 2 NNE 1023,1 20 0,0
23.03.2019 22:00:00 15,3 3,7 4 2 NE 1023,2 20 -
23.03.2019 21:00:00 15,7 4,1 4 2 NNE 1022,9 20 0,0
23.03.2019 20:00:00 17,1 5,4 2 1 SE 1022,3 20 0,0
23.03.2019 19:00:00 19,6 5,3 8 4 SW 1021,6 10 -
23.03.2019 18:00:00 20,9 5,7 9 5 SW 1021,2 18 0,0
23.03.2019 17:00:00 21,3 4,8 13 7 WSW 1021,2 20 0,0
23.03.2019 16:00:00 21,4 4,0 15 8 WSW 1021,5 10 -
23.03.2019 15:00:00 21,7 5,1 11 6 SW 1021,9 13 0,0
23.03.2019 14:00:00 21,9 4,9 11 6 WSW 1022,5 - 0,0
23.03.2019 13:00:00 21,3 2,5 8 4 W 1023,1 20 -
23.03.2019 12:00:00 18,8 6,6 2 1 WNW 1023,7 20 0,0
23.03.2019 11:00:00 15,2 6,5 4 2 W 1024,4 20 0,0
23.03.2019 10:00:00 12,1 5,9 2 1 W 1024,8 15 -
23.03.2019 09:00:00 9,5 3,9 2 1 SE 1024,9 20 0,0
23.03.2019 08:00:00 8,2 2,6 5 3 ENE 1024,7 20 0,0
23.03.2019 07:00:00 8,4 2,4 2 1 S 1024,6 20 -
23.03.2019 06:00:00 9,4 2,3 13 7 E 1024,6 20 0,0
23.03.2019 05:00:00 9,7 2,3 15 8 ENE 1024,5 20 0,0
23.03.2019 04:00:00 10,0 2,6 15 8 ENE 1024,8 20 -
23.03.2019 03:00:00 10,1 3,4 15 8 ENE 1025,7 20 0,0
23.03.2019 02:00:00 10,2 3,5 11 6 ENE 1026,0 20 0,0
23.03.2019 01:00:00 10,6 3,6 11 6 ENE 1026,1 20 -
23.03.2019 00:00:00 10,6 3,4 9 5 ENE 1026,4 20 0,0
22.03.2019 23:00:00 11,4 3,4 8 4 ENE 1026,6 20 0,0
22.03.2019 22:00:00 12,3 4,3 11 6 ENE 1026,2 20 -
22.03.2019 21:00:00 13,4 6,0 2 1 ENE 1025,8 20 0,0
22.03.2019 20:00:00 15,1 5,3 4 2 SSW 1025,2 20 0,0
22.03.2019 19:00:00 17,6 3,5 8 4 SW 1024,8 10 -
22.03.2019 18:00:00 18,5 3,9 13 7 WSW 1024,2 20 0,0
22.03.2019 17:00:00 19,4 2,3 11 6 WSW 1024,2 20 0,0
22.03.2019 16:00:00 20,1 2,9 11 6 WSW 1024,5 15 -
22.03.2019 15:00:00 19,5 3,2 11 6 WSW 1024,9 20 0,0
22.03.2019 14:00:00 19,2 4,9 11 6 WSW 1025,4 2,1 0,0
22.03.2019 13:00:00 18,7 5,2 8 4 WSW 1025,9 20 -
22.03.2019 12:00:00 17,5 7,2 4 2 WNW 1026,3 20 0,0
22.03.2019 11:00:00 14,2 6,8 2 1 W 1026,6 17 0,0
22.03.2019 10:00:00 12,1 5,5 4 2 NE 1026,6 20 -
22.03.2019 09:00:00 8,7 4,1 11 6 ENE 1026,4 20 0,0
22.03.2019 08:00:00 6,6 3,4 8 4 NE 1026,2 20 0,0
22.03.2019 07:00:00 6,9 3,3 8 4 ENE 1025,6 20 -
22.03.2019 06:00:00 6,7 3,3 5 3 ENE 1025,2 20 0,0
22.03.2019 05:00:00 7,0 3,4 15 8 ENE 1025,1 20 0,0
22.03.2019 04:00:00 7,1 3,3 9 5 ENE 1025,2 20 -
22.03.2019 03:00:00 7,8 3,6 13 7 ENE 1025,5 20 0,0
22.03.2019 02:00:00 8,1 3,7 15 8 ENE 1025,4 20 0,0
22.03.2019 01:00:00 8,8 3,8 11 6 ENE 1025,5 19 -
22.03.2019 00:00:00 9,5 3,7 5 3 ENE 1025,5 20 0,0
21.03.2019 23:00:00 10,4 4,1 9 5 ENE 1025,5 20 0,0
21.03.2019 22:00:00 11,4 3,9 5 3 ENE 1025,5 20 -
21.03.2019 21:00:00 11,9 3,4 4 2 SE 1024,9 19 0,0
21.03.2019 20:00:00 13,2 4,1 5 3 SSW 1024,4 3,7 0,0
21.03.2019 19:00:00 16,3 5,0 11 6 SSW 1023,9 10 -
21.03.2019 18:00:00 18,5 4,6 11 6 SSW 1023,3 1,2 0,0
21.03.2019 17:00:00 18,9 3,9 15 8 SW 1023,4 0,9 0,0
21.03.2019 16:00:00 19,1 4,8 15 8 WSW 1023,9 12 -
21.03.2019 15:00:00 19,3 5,7 11 6 SW 1024,7 0,8 0,0
21.03.2019 14:00:00 18,8 6,3 11 6 WSW 1025,4 20 0,0
21.03.2019 13:00:00 18,1 4,3 9 5 W 1026,3 15 -
21.03.2019 12:00:00 16,6 6,4 4 2 WSW 1026,7 20 0,0
21.03.2019 11:00:00 14,1 5,4 2 1 NW 1027,0 20 0,0
21.03.2019 10:00:00 10,2 5,6 4 2 NE 1027,0 15 -
21.03.2019 09:00:00 8,9 3,5 5 3 E 1027,3 20 0,0
21.03.2019 08:00:00 6,6 4,6 4 2 ESE 1027,1 20 0,0
21.03.2019 07:00:00 7,5 5,0 9 5 ENE 1026,8 15 -
21.03.2019 06:00:00 7,2 5,2 4 2 ENE 1026,6 20 0,0
21.03.2019 05:00:00 7,4 5,2 2 1 WSW 1026,2 20 0,0
21.03.2019 04:00:00 8,2 5,1 4 2 NE 1026,2 20 -
21.03.2019 03:00:00 8,3 5,4 8 4 ENE 1026,6 20 0,0
21.03.2019 02:00:00 9,0 5,7 8 4 NE 1026,6 20 0,0
21.03.2019 01:00:00 9,7 5,9 8 4 ENE 1026,4 20 -
21.03.2019 00:00:00 9,9 6,6 2 1 ENE 1026,6 18 0,0
20.03.2019 23:00:00 10,5 6,6 2 1 N 1026,4 20 0,0
20.03.2019 22:00:00 11,3 7,2 5 3 E 1026,4 20 -
20.03.2019 21:00:00 12,4 7,3 8 4 NE 1026,2 20 0,0
20.03.2019 20:00:00 13,9 7,6 2 1 W 1025,9 20 0,0
20.03.2019 19:00:00 15,7 7,2 5 3 SSW 1025,9 20 -
20.03.2019 18:00:00 16,9 8,3 15 8 SW 1025,5 20 0,0
20.03.2019 17:00:00 17,4 8,3 15 8 SW 1025,6 8 0,0
20.03.2019 16:00:00 17,3 7,3 15 8 SW 1026,2 20 -
20.03.2019 15:00:00 18,1 6,9 9 5 SW 1026,6 4,7 0,0
20.03.2019 14:00:00 18,3 7,4 9 5 WSW 1027,2 20 0,0
20.03.2019 13:00:00 17,5 7,2 5 3 N 1027,7 20 -
20.03.2019 12:00:00 16,4 7,6 4 2 SW 1028,5 17 0,0
20.03.2019 11:00:00 13,5 7,0 2 1 SSW 1029,0 20 0,0
20.03.2019 10:00:00 10,4 5,4 2 1 W 1029,2 20 -
20.03.2019 09:00:00 7,7 4,6 2 1 SW 1029,0 20 0,0
20.03.2019 08:00:00 6,5 4,0 2 1 WSW 1028,7 20 0,0
20.03.2019 07:00:00 7,2 4,2 5 3 ENE 1028,0 20 -
20.03.2019 06:00:00 7,6 4,0 2 1 NNE 1027,7 20 0,0
20.03.2019 05:00:00 8,2 4,0 5 3 ENE 1027,3 20 0,0
20.03.2019 04:00:00 8,8 4,2 9 5 NE 1027,6 20 -
20.03.2019 03:00:00 9,3 4,3 8 4 NNE 1028,1 20 0,0
20.03.2019 02:00:00 9,7 4,5 5 3 N 1028,2 20 0,0
20.03.2019 01:00:00 9,9 4,5 9 5 NNE 1028,4 20 -
20.03.2019 00:00:00 10,1 4,5 5 3 NNE 1028,8 20 0,0
19.03.2019 23:00:00 10,6 4,7 18 10 NNE 1028,3 20 0,0
19.03.2019 22:00:00 11,2 4,9 11 6 NNE 1028,4 20 -
19.03.2019 21:00:00 12,1 4,8 8 4 NE 1028,0 20 0,0
19.03.2019 20:00:00 13,4 4,8 11 6 N 1027,3 20 0,0
19.03.2019 19:00:00 15,5 5,4 11 6 N 1026,5 20 -
19.03.2019 18:00:00 16,5 6,0 13 7 NNE 1026,2 20 0,0
19.03.2019 17:00:00 17,2 6,1 16 9 NNW 1026,2 20 0,0
19.03.2019 16:00:00 17,3 5,6 18 10 NNW 1026,5 20 -
19.03.2019 15:00:00 16,8 6,9 13 7 N 1026,9 20 0,0
19.03.2019 14:00:00 16,4 5,9 16 9 NNW 1027,9 20 0,0
19.03.2019 13:00:00 15,7 5,0 15 8 N 1028,3 20 -
19.03.2019 12:00:00 14,5 5,3 9 5 N 1028,7 20 0,0
19.03.2019 11:00:00 12,6 4,5 16 9 NNE 1028,9 20 0,0
19.03.2019 10:00:00 11,1 4,1 15 8 NNE 1029,0 20 -
19.03.2019 09:00:00 8,1 3,9 11 6 NNE 1029,2 20 0,0
19.03.2019 08:00:00 5,9 3,7 4 2 N 1028,9 20 0,0
19.03.2019 07:00:00 6,0 3,5 8 4 NNW 1028,2 20 -
19.03.2019 06:00:00 6,1 3,4 2 1 SSW 1028,1 20 0,0
19.03.2019 05:00:00 6,6 3,2 5 3 WNW 1028,1 20 0,0
19.03.2019 04:00:00 7,0 3,2 4 2 NW 1028,3 20 -
19.03.2019 03:00:00 7,6 3,1 4 2 NNW 1028,5 20 0,0
19.03.2019 02:00:00 8,0 2,7 2 1 S 1028,8 20 0,0
19.03.2019 01:00:00 8,3 2,7 9 5 NNE 1029,3 20 -
19.03.2019 00:00:00 8,3 3,1 5 3 N 1029,7 20 0,0
18.03.2019 23:00:00 9,1 3,3 5 3 NNE 1029,3 20 0,0
18.03.2019 22:00:00 9,8 4,0 8 4 NNE 1029,1 20 -
18.03.2019 21:00:00 10,2 4,3 9 5 N 1028,8 20 0,0
18.03.2019 20:00:00 11,1 4,8 11 6 NNW 1028,3 20 0,0
18.03.2019 19:00:00 13,2 5,4 15 8 NNW 1027,5 20 -
18.03.2019 18:00:00 15,0 4,7 13 7 NNW 1026,8 20 0,0
18.03.2019 17:00:00 16,2 4,2 15 8 NNW 1026,6 20 0,0

tt = temperature
td = dewpoint
ff = wind speed
dd = wind direction
ppp = reduced air pressure
vv = visibility
rr = precipitation

Next stations